CZ-6A DEB, 55880

Orbit data source: Space-Track

CZ-6A DEB, 55880 is space debris in SSO originally from a launch on Fri, 11 Nov 2022 UTC launched from the Taiyaun Space Center, China (TSC). Debris objects in space refer to the collection of defunct objects orbiting the Earth. Examples of debris include non-operational satellites, rocket bodies, and fragments generated from explosions, collisions, or faulty payload assembly.

Loading next visibility...
Identifier
55880, 2022-151AAC
Orbit
SSO
Last TLE update
12 hours ago
Origin
Manufacturer
SAST
Mission
Spacecraft
Bus & Motor
Unknown
Mass
Unknown
Launch date (UTC)
2022-11-11 (3 years ago)
Launch vehicle
Unknown
Launch site
Taiyaun Space Center, China (TSC)
Object type
Payload
Rocket body
Debris
Shape & HBR
Unknown
Radar Cross Section
Small (<0.1 m²)

Expand to show TLE details & history

TLE from 12 hours ago
0 CZ-6A DEB
1 55880U 22151AAC 25133.17704507  .00047189  00000-0  31578-2 0  9997
2 55880  98.7768 219.0979 0052674 352.4387   7.6036 15.05614399121016
Epoch: 2025-05-13T04:14Z
Definitive object data (Epoch: 2025-05-13T04:14:56.694Z)
Latitude
Longitude
-75.81785°
Altitude
516.474 km
Speed
7.625 km/s
True Right ascension
14h 36m 23s
True Declination
0° 00' 00"
Sunlit
Object was in full shadow at TLE epoch
Visualization TLE readout
Latitude
-73.14164°
Longitude
-44.7841°
Altitude
561.403 km
Speed
7.588 km/s
Apparent Right ascension
14h 06m 23s
Apparent Declination
-59° 26' 04"
Sunlit
Object is in full shadow
Visualization observer readout
Local Sidereal Time
01:06:54
Azimuth
200.72° SSW
Elevation
-68.352°
Doppler factor
1
Orbital elements
Apogee altitude
583.145 km
Perigee altitude
510.193 km
Semi-major axis
6,924.806 km
Eccentricity
0.0052674
Inclination
98.7768°
RAAN
219.0979°
Arg. of periapsis
352.4387°
True anomaly
7.68399°
Mean anomaly
7.6036°
Eccentric anomaly
7.64374°
Mean motion
3.76645 °/min
BSTAR
0.0031578
Orbital period
95.58 mins
Loading maneuver chart data...
Loading SW <> Apogee altitude chart data...
Loading historical data...
Loading historical data...
Loading historical data...
Loading historical data...
Loading historical data...
Loading historical data...
Loading historical data...

CZ-6A DEB Visibility forecast

Observer location: undefined°, undefined°

Span
Click to sort rows by Start time (UTC) header in descending order
Start Az.
Max El. time (UTC)
Max El. Az.
Max El.
End time (UTC)
End Az.
4 mins2025-05-13 17:35:37.493Z56.707° ENE2025-05-13 17:37:37.493Z86.527° E15.287°2025-05-13 17:39:37.493Z120.357° SE
5 mins2025-05-13 19:10:37.493Z344.026° N2025-05-13 19:12:37.493Z294.686° NW31.713°2025-05-13 19:15:37.493Z227.186° WSW
5 mins2025-05-14 05:54:37.493Z186.224° SSW2025-05-14 05:56:37.493Z262.845° W40.77°2025-05-14 05:59:37.493Z336.305° NNW
|